Geely Xingzuo 04 zu 01 xing

operational
NORAD ID: 65119 Int'l Des: 2025-170 Owner: GEESP Country: CN Constellation: geesatcom
LEOCIRCULAR

Geely Xingzuo 04 zu 01 xingについて

説明を読み込み中...

リアルタイム位置

3D地球を読み込み中...

次回通過

高度履歴

Altitude vs Time

uPlot chart will show altitude changes over time

軌道要素

1 65119U 25170A 26063.10862778 .00003538 00000-0 44870-3 0 9998
2 65119 49.9877 301.6863 0010979 9.0685 351.0449 14.83851553 30832
Epoch: Mar 4, 2026 • Age: 12 hours

現在のステータス

高度 617.2 km
速度 7.55 km/s
衛星直下点 -22.05°S, 64.8°W
打ち上げ日 Aug 8, 2025
運用期間 0.5 years
タイプ other

技術仕様

分類 Payload
質量 130.00 kg
乾燥質量 130.00 kg
総質量 130.00 kg
長さ 1.00 m
直径 0.50 m
スパン 2.00 m
形状 Box + 2 pan
製造者 GWCG
バスタイプ GPS100
フェーズステータス In Orbit
所有者/国 GEESP/CN

大規模コンステレーション

Loading constellations...